When you browse on this site, cookies collect data to enhance your experience and personalize the content and advertising you see.
Visit our Privacy Policy to learn more. By continuing to use the site, you agree to this use of cookies and data.
EN

Hourly Weather Pokoynoe

Today, 28 September, Monday

Time Temperature Precipitation Wind Pressure Humidity
00:00 +15°C° 0 mm 6 mps 759 mmHg 57%
01:00 +15°C° 0 mm 6 mps 759 mmHg 58%
02:00 +14°C° 0 mm 5 mps 758 mmHg 59%
03:00 +14°C° 0 mm 5 mps 758 mmHg 60%
04:00 +14°C° 0 mm 5 mps 759 mmHg 60%
05:00 +14°C° 0 mm 5 mps 759 mmHg 60%
06:00 +14°C° 0 mm 5 mps 759 mmHg 60%
07:00 +16°C° 0 mm 6 mps 759 mmHg 55%
08:00 +18°C° 0 mm 7 mps 759 mmHg 50%
09:00 +20°C° 0 mm 8 mps 759 mmHg 44%
10:00 +22°C° 0 mm 8 mps 759 mmHg 42%
11:00 +23°C° 0 mm 8 mps 759 mmHg 39%
12:00 +24°C° 0 mm 8 mps 759 mmHg 36%
13:00 +24°C° 0 mm 8 mps 759 mmHg 37%
14:00 +24°C° 0 mm 9 mps 759 mmHg 38%
15:00 +24°C° 0 mm 9 mps 759 mmHg 39%
16:00 +22°C° 0 mm 8 mps 759 mmHg 43%
17:00 +21°C° 0 mm 8 mps 759 mmHg 47%
18:00 +18°C° 0 mm 7 mps 759 mmHg 51%
19:00 +17°C° 0 mm 7 mps 759 mmHg 56%
20:00 +16°C° 0 mm 7 mps 759 mmHg 61%
21:00 +15°C° 0 mm 7 mps 759 mmHg 66%
22:00 +15°C° 0 mm 6 mps 759 mmHg 69%
23:00 +14°C° 0 mm 6 mps 759 mmHg 73%

Tomorrow, 29 September, Tuesday

Time Temperature Precipitation Wind Pressure Humidity
00:00 +14°C° 0 mm 5 mps 759 mmHg 76%
01:00 +14°C° 0 mm 5 mps 759 mmHg 74%
02:00 +14°C° 0 mm 5 mps 758 mmHg 73%
03:00 +13°C° 0 mm 5 mps 758 mmHg 71%
04:00 +13°C° 0 mm 5 mps 758 mmHg 71%
05:00 +13°C° 0 mm 5 mps 758 mmHg 71%
06:00 +13°C° 0 mm 5 mps 758 mmHg 70%
07:00 +15°C° 0 mm 6 mps 758 mmHg 62%
08:00 +17°C° 0 mm 7 mps 758 mmHg 53%
09:00 +19°C° 0 mm 9 mps 757 mmHg 44%
10:00 +22°C° 0 mm 9 mps 757 mmHg 40%
11:00 +23°C° 0 mm 9 mps 757 mmHg 36%
12:00 +26°C° 0 mm 9 mps 756 mmHg 31%
13:00 +26°C° 0 mm 10 mps 756 mmHg 32%
14:00 +26°C° 0 mm 10 mps 755 mmHg 32%
15:00 +26°C° 0 mm 10 mps 755 mmHg 32%
16:00 +24°C° 0 mm 9 mps 755 mmHg 36%
17:00 +22°C° 0 mm 9 mps 755 mmHg 39%
18:00 +20°C° 0 mm 8 mps 755 mmHg 42%
19:00 +18°C° 0 mm 8 mps 755 mmHg 47%
20:00 +17°C° 0 mm 9 mps 755 mmHg 52%
21:00 +16°C° 0 mm 9 mps 755 mmHg 57%
22:00 +16°C° 0 mm 9 mps 754 mmHg 59%
23:00 +15°C° 0 mm 8 mps 754 mmHg 62%

Day after tomorrow, 30 September, Wednesday

Time Temperature Precipitation Wind Pressure Humidity
00:00 +15°C° 0 mm 8 mps 753 mmHg 64%
01:00 +15°C° 0 mm 7 mps 753 mmHg 64%
02:00 +15°C° 0 mm 7 mps 752 mmHg 64%
03:00 +15°C° 0 mm 7 mps 752 mmHg 64%
04:00 +15°C° 0 mm 7 mps 752 mmHg 62%
05:00 +15°C° 0 mm 7 mps 752 mmHg 59%
06:00 +15°C° 0 mm 7 mps 752 mmHg 56%
07:00 +16°C° 0 mm 8 mps 751 mmHg 53%
08:00 +18°C° 0 mm 10 mps 751 mmHg 50%
09:00 +19°C° 0 mm 11 mps 751 mmHg 47%
10:00 +21°C° 0 mm 11 mps 751 mmHg 41%
11:00 +23°C° 0 mm 12 mps 751 mmHg 35%
12:00 +24°C° 0 mm 12 mps 750 mmHg 29%
13:00 +24°C° 0 mm 12 mps 750 mmHg 29%
14:00 +24°C° 0 mm 12 mps 750 mmHg 29%
15:00 +24°C° 0 mm 12 mps 750 mmHg 30%
16:00 +23°C° 0 mm 11 mps 750 mmHg 34%
17:00 +21°C° 0 mm 10 mps 751 mmHg 39%
18:00 +19°C° 0 mm 10 mps 751 mmHg 44%
19:00 +18°C° 0 mm 9 mps 751 mmHg 47%
20:00 +17°C° 0 mm 9 mps 751 mmHg 51%
21:00 +16°C° 0 mm 9 mps 751 mmHg 54%
22:00 +16°C° 0 mm 9 mps 751 mmHg 54%
23:00 +16°C° 0 mm 8 mps 751 mmHg 54%

1 October, Thursday

Time Temperature Precipitation Wind Pressure Humidity
00:00 +16°C° 0 mm 7 mps 751 mmHg 54%
01:00 +16°C° 0 mm 7 mps 751 mmHg 53%
02:00 +16°C° 0 mm 8 mps 750 mmHg 52%
03:00 +16°C° 0 mm 8 mps 750 mmHg 51%
04:00 +16°C° 0 mm 8 mps 750 mmHg 51%
05:00 +16°C° 0 mm 8 mps 750 mmHg 51%
06:00 +16°C° 0 mm 8 mps 751 mmHg 50%
07:00 +18°C° 0 mm 9 mps 751 mmHg 48%
08:00 +19°C° 0 mm 10 mps 751 mmHg 45%
09:00 +21°C° 0 mm 11 mps 751 mmHg 43%
10:00 +22°C° 0 mm 11 mps 751 mmHg 40%
11:00 +23°C° 0 mm 11 mps 750 mmHg 37%
12:00 +26°C° 0 mm 12 mps 750 mmHg 34%
13:00 +24°C° 0 mm 12 mps 750 mmHg 34%
14:00 +24°C° 0 mm 12 mps 750 mmHg 34%
15:00 +24°C° 0 mm 12 mps 749 mmHg 35%
16:00 +23°C° 0 mm 11 mps 750 mmHg 38%
17:00 +21°C° 0 mm 10 mps 750 mmHg 40%
18:00 +19°C° 0 mm 9 mps 750 mmHg 43%
19:00 +18°C° 0 mm 9 mps 750 mmHg 46%
20:00 +17°C° 0 mm 9 mps 751 mmHg 49%
21:00 +17°C° 0 mm 9 mps 751 mmHg 52%
22:00 +17°C° 0 mm 8 mps 751 mmHg 53%
23:00 +16°C° 0 mm 7 mps 751 mmHg 54%

2 October, Friday

Time Temperature Precipitation Wind Pressure Humidity
00:00 +16°C° 0 mm 7 mps 751 mmHg 55%
01:00 +16°C° 0 mm 6 mps 750 mmHg 55%
02:00 +16°C° 0 mm 6 mps 750 mmHg 55%
03:00 +16°C° 0 mm 5 mps 750 mmHg 55%
04:00 +16°C° 0 mm 6 mps 750 mmHg 56%
05:00 +16°C° 0 mm 6 mps 750 mmHg 57%
06:00 +16°C° 0 mm 7 mps 750 mmHg 58%
07:00 +17°C° 0 mm 7 mps 751 mmHg 55%
08:00 +20°C° 0 mm 7 mps 751 mmHg 52%
09:00 +21°C° 0 mm 7 mps 751 mmHg 48%
10:00 +22°C° 0 mm 7 mps 751 mmHg 46%
11:00 +23°C° 0 mm 8 mps 751 mmHg 44%
12:00 +24°C° 0 mm 8 mps 751 mmHg 41%
13:00 +26°C° 0.1 mm 8 mps 751 mmHg 41%
14:00 +26°C° 0.1 mm 8 mps 752 mmHg 41%
15:00 +26°C° 0.1 mm 9 mps 752 mmHg 41%
16:00 +24°C° 0 mm 8 mps 752 mmHg 44%
17:00 +22°C° 0 mm 7 mps 753 mmHg 47%
18:00 +21°C° 0 mm 7 mps 753 mmHg 50%
19:00 +20°C° 0 mm 7 mps 753 mmHg 52%
20:00 +20°C° 0 mm 7 mps 753 mmHg 55%
21:00 +18°C° 0 mm 7 mps 753 mmHg 58%
22:00 +17°C° 0 mm 6 mps 753 mmHg 61%
23:00 +17°C° 0 mm 5 mps 753 mmHg 63%

3 October, Saturday

Time Temperature Precipitation Wind Pressure Humidity
00:00 +17°C° 0 mm 4 mps 753 mmHg 66%
01:00 +17°C° 0 mm 4 mps 753 mmHg 67%
02:00 +15°C° 0 mm 4 mps 753 mmHg 68%
03:00 +15°C° 0 mm 4 mps 753 mmHg 70%
04:00 +15°C° 0 mm 4 mps 753 mmHg 70%
05:00 +15°C° 0 mm 4 mps 753 mmHg 70%
06:00 +14°C° 0 mm 4 mps 754 mmHg 70%
07:00 +16°C° 0 mm 5 mps 754 mmHg 64%
08:00 +19°C° 0 mm 5 mps 754 mmHg 57%
09:00 +21°C° 0 mm 5 mps 754 mmHg 51%
10:00 +22°C° 0 mm 5 mps 754 mmHg 46%
11:00 +25°C° 0 mm 5 mps 754 mmHg 41%
12:00 +27°C° 0 mm 5 mps 754 mmHg 36%
13:00 +27°C° 0 mm 6 mps 754 mmHg 36%
14:00 +27°C° 0 mm 6 mps 754 mmHg 35%
15:00 +28°C° 0 mm 6 mps 754 mmHg 34%
16:00 +26°C° 0 mm 6 mps 754 mmHg 38%
17:00 +24°C° 0 mm 6 mps 754 mmHg 41%
18:00 +22°C° 0 mm 6 mps 755 mmHg 44%
19:00 +21°C° 0 mm 7 mps 755 mmHg 48%
20:00 +20°C° 0 mm 7 mps 755 mmHg 51%
21:00 +18°C° 0 mm 7 mps 756 mmHg 54%
22:00 +18°C° 0 mm 7 mps 756 mmHg 58%
23:00 +17°C° 0 mm 6 mps 756 mmHg 61%
Show more